DW3835 Weather Reports


Display with metric or nautical units.
time (UTC)temp
F
wind
direction
speed
MPH
gust
MPH
rain 1hr
in
rain 24hr
in
rain mn
in
humidity
%
barometer
mb
20260831094732 58 184 0.0 3.0 0.00 0.00 0.00 86 1010.4
20260831090434 57 150 0.0 3.0 0.00 0.00 0.00 86 1010.6
20260831084319 58 158 0.0 1.0 0.00 0.00 0.00 85 1010.5
20260831083243 58 190 0.0 4.0 0.00 0.00 0.00 86 1010.6
20260831082308 58 215 1.0 4.0 0.00 0.00 0.00 86 1010.7
20260831081300 58 144 0.0 3.0 0.00 0.00 0.00 86 1010.9
20260831080304 58 209 1.0 5.0 0.00 0.00 0.00 86 1010.9
20260831074226 58 142 0.0 3.0 0.00 0.00 0.00 86 1010.9
20260831073236 58 150 0.0 2.0 0.00 0.00 0.00 85 1010.8
20260831071155 58 171 0.0 2.0 0.00 0.00 0.00 85 1010.9
20260831070125 58 178 0.0 4.0 0.00 0.00 0.00 85 1010.9
20260831065126 57 165 0.0 5.0 0.00 0.00 0.00 85 1010.9
20260831064149 58 117 0.0 5.0 0.00 0.00 0.00 84 1010.9
20260831063142 58 149 1.0 4.0 0.00 0.00 0.00 85 1011.0
20260831061039 58 198 0.0 2.0 0.00 0.00 0.00 84 1011.0
20260831060015 58 159 0.0 0.0 0.00 0.00 0.00 83 1011.0
20260831054959 58 166 0.0 0.0 0.00 0.00 0.00 82 1010.9
20260831053935 58 166 0.0 0.0 0.00 0.00 0.00 81 1010.9
20260831052953 59 151 0.0 0.0 0.00 0.00 0.00 81 1010.9
20260831051927 58 153 0.0 2.0 0.00 0.00 0.00 81 1010.9
20260831050938 59 128 0.0 0.0 0.00 0.00 0.00 80 1011.0
20260831045954 59 161 0.0 2.0 0.00 0.00 0.00 81 1011.1
20260831043821 59 144 0.0 3.0 0.00 0.00 0.00 80 1011.0
20260831042805 60 165 0.0 3.0 0.00 0.00 0.00 78 1010.8
20260831041746 61 145 0.0 0.0 0.00 0.00 0.00 77 1010.7
20260831040720 61 164 0.0 1.0 0.00 0.00 0.00 77 1010.6
20260831035706 62 176 0.0 0.0 0.00 0.00 0.00 75 1010.5
20260831034632 62 196 0.0 0.0 0.00 0.00 0.00 74 1010.5
20260831033618 62 198 0.0 5.0 0.00 0.00 0.00 74 1010.4
20260831032625 62 219 0.0 3.0 0.00 0.00 0.00 73 1010.2
20260831031554 62 174 1.0 3.0 0.00 0.00 0.00 73 1010.1
20260831024324 64 161 0.0 3.0 0.00 0.00 0.00 69 1010.0
20260831023342 65 149 0.0 2.0 0.00 0.00 0.00 67 1009.9
20260831022342 66 169 0.0 2.0 0.00 0.00 0.00 66 1009.9
20260831021404 66 155 0.0 3.0 0.00 0.00 0.00 64 1009.9
20260831020423 67 182 0.0 3.0 0.00 0.00 0.00 63 1009.9
20260831015436 67 163 0.0 2.0 0.00 0.00 0.00 62 1010.0
20260831014402 68 158 0.0 2.0 0.00 0.00 0.00 61 1009.8
20260831013345 68 151 0.0 4.0 0.00 0.00 0.00 61 1009.9
20260831012333 69 103 1.0 4.0 0.00 0.00 0.00 61 1010.0
20260831011355 69 169 0.0 4.0 0.00 0.00 0.00 61 1010.0
20260831010408 69 164 1.0 4.0 0.00 0.00 0.00 60 1010.1
20260831005425 69 165 1.0 4.0 0.00 0.00 0.00 61 1010.2
20260831004414 69 121 1.0 5.0 0.00 0.00 0.00 61 1010.2
20260831003348 70 155 1.0 5.0 0.00 0.00 0.00 62 1010.2
20260831002320 71 109 1.0 4.0 0.00 0.00 0.00 62 1010.3
20260831001309 71 159 1.0 4.0 0.00 0.00 0.00 61 1010.3
20260831000307 72 143 1.0 6.0 0.00 0.00 0.00 59 1010.4
20260830235239 72 126 1.0 6.0 0.00 0.00 0.00 59 1010.3
20260830232012 74 165 1.0 6.0 0.00 0.00 0.00 57 1010.5
20260830230951 75 178 1.0 4.0 0.00 0.00 0.00 57 1010.5
20260830230012 75 184 0.0 4.0 0.00 0.00 0.00 56 1010.4
20260830225037 75 150 1.0 4.0 0.00 0.00 0.00 56 1010.5
20260830224102 75 243 1.0 4.0 0.00 0.00 0.00 56 1010.6
20260830223105 75 188 1.0 4.0 0.00 0.00 0.00 56 1010.8
20260830222127 75 218 0.0 4.0 0.00 0.00 0.00 56 1010.9
20260830221103 75 189 1.0 4.0 0.00 0.00 0.00 57 1011.0
20260830220058 76 174 1.0 4.0 0.00 0.00 0.00 55 1011.1
20260830215059 76 140 1.0 4.0 0.00 0.00 0.00 55 1011.2
20260830214043 76 181 2.0 6.0 0.00 0.00 0.00 54 1011.4
20260830213028 76 161 1.0 5.0 0.00 0.00 0.00 54 1011.6
20260830212016 76 171 1.0 5.0 0.00 0.00 0.00 55 1011.7
20260830211011 75 173 2.0 5.0 0.00 0.00 0.00 56 1011.8
20260830204850 74 164 2.0 8.0 0.00 0.00 0.00 57 1012.0
20260830203845 74 265 1.0 8.0 0.00 0.00 0.00 59 1012.0
20260830201647 74 169 1.0 5.0 0.00 0.00 0.00 60 1012.1
20260830200651 74 150 1.0 5.0 0.00 0.00 0.00 60 1012.3
20260830195706 74 163 1.0 4.0 0.00 0.00 0.00 61 1012.3
20260830194711 74 150 1.0 6.0 0.00 0.00 0.00 59 1012.4
20260830193653 74 88 1.0 6.0 0.00 0.00 0.00 60 1012.5
20260830192630 73 114 1.0 5.0 0.00 0.00 0.00 61 1012.6
20260830191557 72 90 1.0 6.0 0.00 0.00 0.00 65 1012.6
20260830190535 71 121 1.0 6.0 0.00 0.00 0.00 65 1012.6
20260830185530 70 215 1.0 6.0 0.00 0.00 0.00 67 1012.8
20260830184522 69 155 1.0 6.0 0.00 0.00 0.00 67 1012.8
20260830183457 69 238 0.0 4.0 0.00 0.00 0.00 68 1012.8
20260830182511 69 91 1.0 5.0 0.00 0.00 0.00 69 1012.7
20260830181449 68 194 1.0 5.0 0.00 0.00 0.00 70 1012.8
20260830180416 68 155 1.0 3.0 0.00 0.00 0.00 71 1012.8
20260830175419 67 176 1.0 6.0 0.00 0.00 0.00 72 1012.9
20260830174427 66 191 1.0 6.0 0.00 0.00 0.00 73 1013.0
20260830173428 65 164 1.0 5.0 0.00 0.00 0.00 74 1013.0
20260830172439 65 161 1.0 5.0 0.00 0.00 0.00 76 1013.1
20260830171433 63 172 1.0 6.0 0.00 0.00 0.00 77 1013.0
20260830170426 62 146 1.0 6.0 0.00 0.00 0.00 79 1013.0
20260830165446 63 150 1.0 5.0 0.00 0.00 0.00 77 1013.0
20260830164510 63 185 1.0 5.0 0.00 0.00 0.00 80 1013.0
20260830163507 61 126 1.0 5.0 0.00 0.00 0.00 81 1012.9
20260830162518 61 182 1.0 3.0 0.00 0.00 0.00 82 1013.0
20260830161543 60 219 1.0 3.0 0.00 0.00 0.00 83 1012.8
20260830160539 60 194 1.0 3.0 0.00 0.00 0.00 84 1012.8
20260830155547 59 131 0.0 3.0 0.00 0.00 0.00 85 1012.8
20260830154559 59 186 0.0 5.0 0.00 0.00 0.00 85 1012.8
20260830153545 59 200 0.0 5.0 0.00 0.00 0.00 85 1012.8
20260830151414 58 167 0.0 6.0 0.00 0.00 0.00 86 1012.7
20260830150403 58 181 1.0 4.0 0.00 0.00 0.00 86 1012.7
20260830145417 58 159 0.0 4.0 0.00 0.00 0.00 86 1012.6
20260830143245 58 145 1.0 5.0 0.00 0.00 0.00 87 1012.5
20260830142212 58 188 1.0 5.0 0.00 0.00 0.00 87 1012.4
20260830141140 58 183 1.0 4.0 0.00 0.00 0.00 87 1012.3
20260830140116 57 177 1.0 9.0 0.00 0.00 0.00 87 1012.3
20260830135100 57 137 1.0 9.0 0.00 0.00 0.00 87 1012.1
20260830134026 57 171 1.0 5.0 0.00 0.00 0.00 87 1012.1
20260830133044 57 188 1.0 6.0 0.00 0.00 0.00 87 1012.0
20260830132040 57 149 1.0 9.0 0.00 0.00 0.00 87 1011.9
20260830131019 57 143 1.0 9.0 0.00 0.00 0.00 87 1011.9
20260830130040 57 209 1.0 3.0 0.00 0.00 0.00 87 1011.8
20260830125013 57 187 1.0 6.0 0.00 0.00 0.00 87 1011.7
20260830123945 57 160 1.0 6.0 0.00 0.00 0.00 86 1011.7
20260830122937 58 136 1.0 6.0 0.00 0.00 0.00 87 1011.6
20260830121906 58 150 1.0 5.0 0.00 0.00 0.00 87 1011.6
20260830120909 58 165 1.0 5.0 0.00 0.00 0.00 87 1011.6
20260830115845 58 183 1.0 5.0 0.00 0.00 0.00 87 1011.6
20260830114847 58 167 0.0 4.0 0.00 0.00 0.00 87 1011.6
20260830113905 58 208 0.0 2.0 0.00 0.00 0.00 87 1011.6
20260830112836 58 214 0.0 1.0 0.00 0.00 0.00 87 1011.7
20260830111849 58 157 0.0 4.0 0.00 0.00 0.00 87 1011.7
20260830110905 58 160 0.0 2.0 0.00 0.00 0.00 87 1011.7
20260830105920 58 17 0.0 1.0 0.00 0.00 0.00 86 1011.7
20260830104906 58 147 0.0 0.0 0.00 0.00 0.00 87 1011.7
20260830103930 57 138 0.0 4.0 0.00 0.00 0.00 87 1011.8
20260830102920 58 198 0.0 4.0 0.00 0.00 0.00 86 1011.7
20260830101848 57 199 0.0 3.0 0.00 0.00 0.00 86 1011.8
20260830100836 57 184 1.0 4.0 0.00 0.00 0.00 86 1011.8
20260830095822 57 147 0.0 4.0 0.00 0.00 0.00 86 1011.9